Regional Weather Roundup
Issued by NWS

Home | Current Version | Previous Version | Graphics & Text | Print | Product List | Glossary On
Versions: 1 2 3 4 5 6 7 8 9 10 11 12 13 14 15 16 17 18 19 20 21 22 23 24 25 26 27 28 29 30 31 32 33 34 35 36 37 38 39 40 41 42 43 44 45 46 47 48 49 50
000
ASUS43 KTOP 302159
RWRKS

WEATHER ROUNDUP FOR KANSAS
NATIONAL WEATHER SERVICE GOODLAND KS
500 PM CDT SAT APR 30 2016

NOTE:  "FAIR" INDICATES FEW OR NO CLOUDS BELOW 12,000 FEET WITH NO
SIGNIFICANT WEATHER AND/OR OBSTRUCTIONS TO VISIBILITY.

KSZ001>006-013>018-027>032-041>047-302300-
NORTHWEST KANSAS

CITY           SKY/WX    TMP DP  RH WIND       PRES   REMARKS
GOODLAND       LGT RAIN  38  34  85 N22G29    29.87R WCI  27
HAYS           CLOUDY    52  36  54 NW13      29.82S
HILL CITY      CLOUDY    47  38  71 NW12      29.84R
RUSSELL        CLOUDY    52  41  66 W16       29.80R
$$

KSZ061>065-074>080-084>089-302300-
SOUTHWEST KANSAS

CITY           SKY/WX    TMP DP  RH WIND       PRES   REMARKS
DODGE CITY     CLOUDY    53  37  54 W17       29.84F
ELKHART          N/A     54  31  41 NW24        N/A
GARDEN CITY    CLOUDY    50  34  54 NW16G24   29.85S
GREAT BEND     CLOUDY    54  39  58 W16       29.82R
LIBERAL        PTSUNNY   57  37  47 NW20G28   29.88R
$$

KSZ066>073-081>083-090>101-302300-
SOUTHEAST KANSAS

CITY           SKY/WX    TMP DP  RH WIND       PRES   REMARKS
CHANUTE        SUNNY     66  49  54 W16       29.77R
COFFEYVILLE    SUNNY     68  50  52 W13       29.77F
HUTCHINSON     PTSUNNY   58  41  53 W16       29.81R
MEDICINE LODGE   N/A     62  40  44 NW14G24   29.81F
NEWTON         CLOUDY    57  41  54 W14G22    29.81S
PARSONS        MOSUNNY   67  51  56 W10G21    29.78S
WICHITA INTL   MOSUNNY   62  43  49 W16       29.80R
WICHITA JABRA  MOSUNNY   61  44  53 W16G24    29.79R
WINFIELD       SUNNY     65  47  52 W15G22    29.80S
$$

KSZ007>012-019>026-033>040-048>060-102>105-302300-
NORTHEAST KANSAS

CITY           SKY/WX    TMP DP  RH WIND       PRES   REMARKS
CONCORDIA      CLOUDY    54  44  69 W12       29.77R
EMPORIA        PTSUNNY   61  46  57 W10       29.77R
LAWRENCE       MOSUNNY   67  50  54 W13G21    29.73S
MANHATTAN      CLOUDY    61  46  57 W9G20     29.76R
OLATHE IND     SUNNY     65  49  56 W13       29.75S
OLATHE EXE     MOSUNNY   65  49  56 W14       29.74R
SALINA         CLOUDY    58  44  60 W15       29.79R
TOPEKA BILLARD MOSUNNY   65  47  52 W14       29.74R
TOPEKA FORBES  SUNNY     66  48  52 W15       29.73S
$$



USA.gov is the U.S. government's official web portal to all federal, state and local government web resources and services.